This demonstration page uses our WeatherBlox Daily Observations layout. Learn more.

Left ArrowRight Arrow

39.01783, -85.05884

Hourly Observations for April 24, 2019

Temp ( °F °C ) Dew Point ( °F °C ) Humidity (%) Winds ( mph kmh ) Pressure ( in mb ) Visibility ( mi km ) Precip ( " mm )
12:52 am 00:52 Cloudy 55 12.8 48 8.9 77 77 NNW 7 11 29.99 1016 10 16 N/A
1:52 am 01:52 Cloudy 55 12.8 46 7.8 72 72 N 8 13 29.99 1016 10 16 N/A
2:52 am 02:52 Cloudy 53 11.7 46 7.8 77 77 N 6 9 29.98 1015 10 16 N/A
3:52 am 03:52 Cloudy 53 11.7 45 7.2 74 74 N 10 17 29.98 1015 10 16 N/A
4:52 am 04:52 Cloudy 52 11.1 42 5.6 69 69 NNE 10 17 29.98 1015 10 16 N/A
5:52 am 05:52 Cloudy 51 10.6 41 5 69 69 NE 8 13 29.98 1015 10 16 N/A
6:52 am 06:52 Cloudy 50 10 41 5 71 71 NNE 9 15 29.98 1015 10 16 N/A
7:52 am 07:52 Cloudy 51 10.6 41 5 69 69 NE 7 11 30.01 1016 10 16 N/A
8:52 am 08:52 Cloudy 51 10.6 42 5.6 71 71 E 7 11 30.02 1017 10 16 N/A
9:52 am 09:52 Cloudy 54 12.2 42 5.6 64 64 E 10 17 30.01 1016 10 16 N/A
10:52 am 10:52 Cloudy 56 13.3 43 6.1 62 62 ENE 6 9 30.01 1016 10 16 N/A
11:52 am 11:52 Cloudy 58 14.4 44 6.7 60 60 E 6 9 30.01 1016 10 16 N/A
12:52 pm 12:52 Cloudy 60 15.6 45 7.2 58 58 E 5 7 29.99 1016 10 16 N/A
1:26 pm 13:26 Cloudy 61 16.1 43 6.1 52 52 N N/A 29.98 1015 10 16 N/A
1:52 pm 13:52 Cloudy 62 16.7 44 6.7 52 52 NE 5 7 29.96 1015 10 16 N/A
2:37 pm 14:37 Cloudy 63 17.2 46 7.8 54 54 VRB 5 7 29.96 1014 10 16 N/A
2:52 pm 14:52 Cloudy 65 18.3 46 7.8 51 51 NE 3 6 29.94 1014 10 16 N/A
3:52 pm 15:52 Cloudy 67 19.4 50 10 55 55 SE 12 19 29.89 1012 10 16 N/A
4:52 pm 16:52 Cloudy 69 20.6 51 10.6 53 53 N N/A 29.88 1012 10 16 N/A
5:52 pm 17:52 Cloudy 69 20.6 51 10.6 53 53 NNE 5 7 29.87 1012 10 16 N/A
6:52 pm 18:52 Cloudy 67 19.4 49 9.4 53 53 NE 9 15 29.87 1011 10 16 N/A
7:52 pm 19:52 Cloudy 67 19.4 48 8.9 51 51 NE 8 13 29.85 1011 10 16 N/A
8:52 pm 20:52 Cloudy with Light Rain 65 18.3 49 9.4 56 56 ENE 8 13 29.87 1012 10 16 N/A
9:52 pm 21:52 Cloudy with Rain 60 15.6 53 11.7 78 78 SSE 6 9 29.88 1012 6 10 N/A
10:52 pm 22:52 Cloudy with Rain 57 13.9 54 12.2 90 90 W 5 7 29.90 1012 5 8 0.08 2.03
11:52 pm 23:52 Cloudy with Light Rain 57 13.9 54 12.2 90 90 SE 9 15 29.86 1011 10 16 0.06 1.52

Powered by AerisWeather